Regional Weather Roundup
Issued by NWS

Home | Current Version | Previous Version | Text Only | Print | Product List | Glossary Off
Versions: 1 2 3 4 5 6 7 8 9 10 11 12 13 14 15 16 17 18 19 20 21 22 23 24 25 26 27 28

000
ASUS45 KTFX 210810
RWRMT
MONTANA REGIONAL WEATHER ROUNDUP
NATIONAL WEATHER SERVICE GREAT FALLS MT
200 AM MDT FRI JUL 21 2017

NOTE: "FAIR" INDICATES FEW OR NO CLOUDS BELOW 12000 FEET WITH NO
SIGNIFICANT WEATHER AND/OR OBSTRUCTIONS TO VISIBILITY.

MTZ001>007-043-210900-
WEST OF THE DIVIDE

CITY           SKY/WX    TMP DP  RH WIND       PRES   REMARKS
KALISPELL      PTCLDY    62  36  37 W9        30.02S
MISSOULA       MOCLDY    62  39  42 NW5       30.06R
BUTTE          CLEAR     56  36  47 E5        30.13R
MULLAN PASS    CLEAR     50  33  52 SW7       30.17S
ANACONDA         N/A     63  37  39 NW5       30.10S
DEER LODGE       N/A     63  37  39 W3        30.11R
EUREKA           N/A     64  39  39 MISG        N/A
HAMILTON         N/A     59  45  58 SE5       30.07R
LIBBY            N/A     57  37  47 E3        30.01S
$$

MTZ008-052>055-210900-
SOUTHWEST MONTANA

CITY           SKY/WX    TMP DP  RH WIND       PRES   REMARKS
DILLON         CLEAR     57  35  43 S5        30.09R
W YELLOWSTONE  CLEAR     55  37  50 N3        30.17R
ENNIS          PTCLDY    57  37  47 SE8       30.14R
THREE FORKS      N/A     55  42  61 CALM      30.04R
$$

MTZ009-010-012-014-046-048-049-054-210900-
EAST SLOPES AND CENTRAL MONTANA

CITY           SKY/WX    TMP DP  RH WIND       PRES   REMARKS
CUT BANK       MOCLDY    63  36  36 W14       29.97R
GREAT FALLS    CLEAR     62  25  24 S7        29.97R
HELENA         CLEAR     69  34  27 VRB5      30.04R
CHOTEAU          N/A     66  34  30 MISG      30.00R
CONRAD           N/A     70  33  25 W14       29.99R
$$

MTZ011-013-016-021-045-047-050-051-210900-
NORTH CENTRAL MONTANA

CITY           SKY/WX    TMP DP  RH WIND       PRES   REMARKS
HAVRE          CLEAR     70  39  32 W15       29.85R
LEWISTOWN      MOCLDY    66  34  30 W10       29.98R
N BAR RANCH    CLOUDY    72  30  21 NW15G22   29.98S
CHINOOK          N/A     70  45  40 W14       29.81R
$$

MTZ017>020-022>027-061-062-210900-
NORTHEAST MONTANA

CITY           SKY/WX    TMP DP  RH WIND       PRES   REMARKS
GLASGOW        CLEAR     72  53  51 NE20G28   29.78R
JORDAN           N/A     62  53  72 W5        29.77R
SIDNEY         CLOUDY    65  59  81 N5        29.75F
WOLF POINT     CLEAR     71  56  58 NE23G36   29.78R
MALTA          CLEAR     68  48  49 E10       29.78F
PLENTYWOOD       N/A     70  57  64 N17G33    29.88R
POPLAR           N/A     63  55  77 N16G23    29.80R
SCOBEY           N/A     63  47  55 N16       29.87
$$

MTZ028>42-056>058-210900-
SOUTHCENTRAL AND SOUTHEAST MONTANA

CITY           SKY/WX    TMP DP  RH WIND       PRES   REMARKS
BAKER          CLOUDY    72  58  61 S13       29.84F
BILLINGS       PTCLDY    75  52  44 SW10      29.90R
LIVINGSTON     CLEAR     68  35  29 W9        30.04R
MILES CITY     PTCLDY    77  48  35 S8        29.79S
BIG TIMBER     CLOUDY    72  32  23 SW13      30.01S
EKALAKA          N/A     72  58  61 SE18      29.85
FORSYTH          N/A     75  48  38 SE7       29.78S
LAUREL           N/A     72  52  49 SW3       29.91R
ROUNDUP          N/A     76  31  19 NW12      29.81S
$$

REGIONAL REPORTS...DAKOTAS

CITY           SKY/WX    TMP DP  RH WIND       PRES   REMARKS
WILLISTON      CLOUDY    72  58  61 SE5       29.77F
MINOT          CLOUDY    68  62  81 SE5       29.79F
DICKINSON      MOCLDY    68  62  81 S14       29.79F
BEACH            N/A     73  59  60 SW13G21   29.84S
CROSBY           N/A     63  61  94 N12       29.82R
WATFORD CITY     N/A     64  59  82 SE9       29.76F
BISMARCK       CLOUDY    72  62  71 S8        29.81F
GRAND FORKS    MOCLDY    71  65  81 SE7       29.86F
FARGO          CLOUDY    76  68  76 SE8       29.87S
BUFFALO SD       N/A     67  63  87 SE13      29.81F
RAPID CITY     CLOUDY    66  63  90 N8        29.94F
$$

REGIONAL REPORTS...WYOMING/IDAHO/WASHINGTON

CITY           SKY/WX    TMP DP  RH WIND       PRES   REMARKS
GILLETTE       PTCLDY    68  59  73 S16       29.95F
SHERIDAN       CLOUDY    64  53  67 CALM      29.88F
BUFFALO WY     CLOUDY    65  51  60 CALM      29.97F
CODY           CLOUDY    61  54  77 VRB3      30.04R
YELLOWSTONE LA   N/A     43  43 100 W3        30.27S
IDAHO FALLS    CLOUDY    61  42  49 SW9       30.07S
BOISE          CLEAR     68  40  35 CALM      29.99R
SPOKANE        PTCLDY    62  41  46 S6        30.04R
$$

REGIONAL REPORTS...ALBERTA

CITY           SKY/WX    TMP DP  RH WIND       PRES   REMARKS
EDMONTON       MOCLDY    55  54  94 SW7       29.82S
CALGARY        MOCLDY    63  39  42 W14G23    29.93S
LETHBRIDGE     CLEAR     59  37  44 NW9       29.94R
MEDICINE HAT   CLEAR     66  48  52 NW14G23   29.82R
WATERTON GATE    N/A     63  30  29 W14G22      N/A
CARDSTON         N/A     54  37  54 E2          N/A
MILK RIVER       N/A     59  39  47 NW9         N/A
ONEFOUR          N/A     63  43  48 NW15        N/A
$$

REGIONAL REPORTS...SASKATCHEWAN

CITY           SKY/WX    TMP DP  RH WIND       PRES   REMARKS
SWIFT CURRENT  MOCLDY    63  54  72 E6        29.81R
REGINA         CLOUDY    66  61  82 SE9       29.86R
SASKATOON      LGT RAIN  63  57  82 SE14G20   29.79F
VAL MARIE        N/A     66  50  55 E12         N/A
ROCKGLEN         N/A     59  54  82 E9          N/A
$$




USA.gov is the U.S. government's official web portal to all federal, state and local government web resources and services.